Temperature
29 29 29 29 29 29 29 29 29 29 29 29 28 28 27 26 25 24 24 23 22 22 21 20 20 19 19 19 18 18 18 18 18 18 17 17 17 17 17 17 17 17 16 16
28 29 29 28 29 29 28 29 29 29 28 28 28 27 26 25 24 24 23 23 22 21 20 19 19 19 19 18 18 18 18 18 18 17 17 17 17 17 16 16 16 16 16 16
28 28 28 28 28 29 28 28 28 28 28 28 27 26 25 24 23 23 23 22 21 20 20 19 19 19 18 18 18 18 17 17 17 17 17 17 17 16 16 16 16 16 16 15
27 27 26 28 28 28 28 28 28 28 27 27 26 25 24 23 22 22 21 21 21 20 19 19 19 19 18 18 18 17 17 17 17 17 17 17 16 16 16 16 16 16 15 15
27 27 27 27 27 27 27 27 27 27 27 26 25 25 23 22 22 21 21 20 20 20 20 19 19 18 18 18 17 17 17 17 17 17 17 16 16 16 16 16 15 15 15 15
26 26 26 27 27 27 27 26 26 26 25 25 25 26 24 21 20 20 20 19 19 19 19 18 18 18 18 17 17 17 17 16 16 16 16 16 16 16 15 15 15 15 14 15
25 26 27 26 26 26 26 25 24 24 24 24 24 24 21 20 19 19 19 19 18 18 18 18 18 17 17 17 17 16 16 16 16 16 16 15 15 15 15 15 14 14 14 14
25 25 25 24 25 25 24 23 23 23 22 22 21 20 20 19 19 18 18 18 18 17 17 17 17 17 17 16 16 16 16 15 15 15 15 15 15 15 14 14 14 14 14 14
25 25 23 23 23 22 22 22 22 22 21 21 20 20 19 18 18 17 17 17 17 17 17 17 16 16 16 16 16 15 15 15 15 15 15 14 14 14 14 14 14 14 14 14
22 23 22 22 21 21 21 21 21 21 20 20 20 19 18 18 17 17 17 17 17 16 16 16 16 16 15 15 15 15 15 15 15 14 14 14 14 14 14 14 14 14 13 13
21 21 21 21 20 20 20 20 20 20 20 19 19 18 18 17 17 16 16 16 16 16 15 15 15 15 15 14 14 14 14 14 14 14 14 13 14 13 13 13 13 13 13 13
22 20 21 20 19 19 19 19 19 19 19 18 18 18 17 17 16 16 16 15 15 15 15 15 14 14 14 14 14 14 14 14 14 14 13 13 13 13 13 13 13 13 12 12
19 19 19 18 18 18 18 18 18 18 18 18 17 17 17 16 16 15 15 15 15 14 14 14 14 14 14 14 14 13 13 13 13 13 13 13 13 13 13 12 12 12 12 12
17 17 18 17 17 17 17 17 17 17 17 17 16 16 16 15 15 15 14 14 14 14 14 14 14 13 13 13 13 13 13 13 13 13 13 13 12 12 12 12 12 12 12 11
17 17 17 17 16 16 16 16 16 16 16 16 16 16 15 15 14 14 14 14 14 14 13 13 13 13 13 13 13 13 13 13 12 12 12 12 12 12 12 12 12 12 12 11
17 17 16 16 16 16 16 16 16 16 16 15 15 15 15 14 14 14 13 13 13 13 13 13 13 12 12 12 12 12 12 12 12 12 12 12 12 12 12 12 11 11 11 11
16 16 16 16 16 16 16 15 15 15 15 15 15 14 14 14 13 13 13 13 13 12 12 12 12 12 12 12 12 12 12 12 12 12 12 12 12 12 12 11 11 11 11 11
16 16 16 15 15 15 15 15 14 14 14 14 14 13 13 13 13 13 12 12 12 12 12 12 12 12 12 12 12 12 12 11 11 11 11 11 11 11 11 11 11 11 10 10
16 15 15 15 15 15 14 14 14 14 13 13 13 13 13 13 13 12 12 12 12 12 11 11 11 11 11 11 11 11 11 11 11 11 11 11 11 11 11 11 11 10 10 10
15 15 15 14 14 14 14 14 14 13 13 13 13 13 12 12 12 12 12 12 12 11 11 11 11 11 11 11 11 11 11 11 11 11 11 10 10 10 10 10 10 10 10 10
14 14 14 14 14 13 13 13 13 13 13 13 13 12 12 12 12 12 12 12 11 11 11 11 11 11 11 11 11 11 11 11 11 10 10 10 10 10 10 10 10 10 9 9
13 13 13 13 13 13 13 13 13 13 12 12 12 12 12 12 11 11 11 11 11 11 11 11 10 10 10 10 10 10 10 10 10 10 10 10 10 10 9 9 9 9 9 9
13 13 13 12 12 12 12 12 12 12 12 12 12 12 12 12 12 12 11 11 11 11 11 10 10 10 10 10 10 10 10 10 10 10 10 10 9 9 9 9 9 9 8 8
12 12 12 12 12 12 12 12 12 12 12 12 12 12 11 12 11 11 11 11 11 10 10 10 10 10 10 10 10 10 10 10 10 10 10 9 9 9 9 9 8 8 8 8
12 12 12 12 12 12 12 12 12 12 12 12 12 11 11 11 11 11 11 11 11 10 10 10 10 10 10 10 10 10 10 10 10 9 9 9 9 9 9 8 8 8 8 7
12 12 12 12 12 12 12 12 12 12 12 12 12 12 11 11 11 11 10 10 10 10 10 10 10 10 10 10 10 9 9 9 9 9 9 9 9 8 8 8 7 7 7 7
12 12 11 12 12 12 12 12 12 12 12 12 12 11 11 11 11 10 10 10 10 10 10 10 10 10 10 10 10 9 9 9 9 9 8 8 8 8 8 7 7 7 7 7
Wind_Speed
8 6 6 7 8 9 10 10 10 8 6 2 1 1 2 4 5 6 6 6 6 6 6 6 6 5 4 4 3 3 4 4 4 4 4 3 3 3 3 3 3 3 3 3
11 9 9 9 9 9 9 9 10 8 6 1 0 1 2 4 5 6 6 6 6 6 6 5 5 4 4 4 3 3 3 3 3 3 3 4 3 3 3 2 2 2 2 2
11 10 11 13 11 10 9 8 8 8 5 3 2 1 2 3 4 4 5 5 5 5 5 5 5 5 4 4 3 3 2 2 2 3 3 3 3 3 3 3 3 3 2 2
9 9 13 5 4 7 8 7 6 4 3 2 2 1 2 2 3 4 4 4 4 4 4 4 4 4 3 3 3 3 2 2 2 2 2 3 3 2 2 2 2 2 2 2
9 11 11 6 5 6 7 7 3 3 3 2 2 2 2 2 2 3 3 3 3 3 3 4 4 4 3 3 3 2 2 2 1 1 2 2 3 3 2 2 2 2 2 2
9 11 10 5 4 4 6 7 2 1 2 2 3 3 1 2 2 3 3 3 3 2 3 3 3 4 4 3 3 2 1 1 2 2 2 1 1 2 2 2 2 2 2 2
11 10 6 1 2 5 8 2 2 1 2 2 1 2 2 3 2 3 4 4 3 3 3 2 3 3 3 2 2 1 1 1 1 2 2 2 2 2 2 2 2 2 1 1
10 10 5 3 3 3 2 2 2 1 1 1 2 3 3 3 3 4 4 3 4 3 3 3 3 3 3 2 2 2 1 1 2 2 1 2 2 2 2 2 3 2 2 1
4 2 3 3 2 2 1 1 1 1 1 2 2 3 3 3 4 4 4 3 3 4 4 3 3 2 2 2 1 2 2 2 2 2 1 2 3 2 2 2 1 1 1 1
2 3 2 2 2 3 2 2 1 1 1 2 3 3 3 4 4 4 4 3 3 3 3 3 3 2 2 2 2 2 2 2 2 1 1 2 1 1 1 1 0 0 0 1
4 2 2 2 2 3 2 2 2 2 2 2 3 4 4 4 4 4 4 4 3 3 3 3 3 3 3 3 2 3 2 1 1 1 2 1 1 1 1 2 2 1 1 1
3 3 2 1 1 2 2 1 1 2 2 2 3 4 5 5 4 4 4 4 4 4 4 3 3 3 3 3 2 2 2 1 1 1 1 1 1 2 4 3 4 3 3 2
2 1 0 0 1 1 1 1 1 1 2 2 3 4 5 5 4 4 4 4 4 3 3 3 3 3 2 2 2 2 1 1 1 0 0 0 0 1 0 1 3 3 2 1
1 2 2 1 0 1 1 2 2 2 3 3 3 4 5 5 5 4 4 3 3 3 2 2 3 2 2 1 2 1 1 1 0 0 0 1 1 1 1 1 1 1 2 3
2 2 2 1 1 0 1 1 2 2 3 3 3 4 5 5 5 4 3 3 3 3 2 2 2 2 2 1 0 0 0 0 0 1 1 1 1 1 1 1 2 2 1 1
1 2 3 3 2 1 1 1 2 2 3 3 4 4 5 5 4 4 3 3 3 2 2 2 2 2 1 0 0 1 0 1 1 1 1 1 1 1 1 1 2 2 2 2
3 3 3 2 2 1 1 1 1 1 2 2 3 4 4 4 4 3 3 3 3 2 2 1 1 1 1 0 1 1 0 1 1 1 1 1 1 1 1 1 2 2 2 1
3 2 3 3 2 2 1 1 1 1 2 2 3 3 4 4 3 3 3 3 3 2 2 1 1 1 1 1 0 1 0 0 0 1 1 1 1 2 2 2 3 3 3 1
2 3 3 2 2 2 2 1 2 2 2 2 3 3 3 3 3 3 3 2 2 2 1 2 1 0 1 1 1 0 0 0 0 0 1 1 2 2 2 2 3 3 3 3
1 2 2 2 2 2 2 2 2 2 2 3 3 3 3 3 3 3 3 2 1 1 1 1 0 0 1 1 2 1 1 1 0 0 1 1 1 2 2 2 3 3 3 3
1 1 1 1 1 1 1 2 3 3 3 3 3 3 3 3 3 3 3 2 1 1 1 1 1 0 1 1 3 1 1 1 1 1 2 2 2 2 3 3 3 3 3 3
1 1 1 1 1 1 1 2 3 3 3 3 4 4 3 4 4 3 2 1 1 1 1 1 0 2 2 3 2 1 2 2 2 2 2 2 2 3 3 3 3 3 3 3
1 1 2 2 2 2 2 2 3 3 3 4 4 4 3 2 2 2 2 2 2 1 1 0 2 1 4 3 2 1 2 2 2 2 2 2 2 3 3 3 4 4 4 3
1 1 2 2 3 4 3 3 3 2 3 3 3 3 3 2 2 2 1 3 3 2 2 2 2 1 5 2 2 2 2 2 2 3 2 2 2 3 3 3 3 3 3 4
1 1 2 2 3 3 4 4 3 3 3 3 3 3 2 2 2 2 1 2 3 3 2 4 5 4 4 2 2 2 2 2 3 3 2 3 3 3 3 3 3 3 3 4
2 2 2 2 2 2 2 2 2 2 2 2 3 2 2 2 2 2 2 2 2 3 3 2 3 4 3 2 2 2 3 2 2 3 2 2 3 3 3 3 4 3 4 4
3 2 3 3 3 2 2 2 2 2 2 2 2 2 2 2 2 2 2 1 2 2 2 2 2 2 3 3 2 2 2 2 2 2 2 2 3 3 3 3 3 3 4 4
Wind_Direction
247 253 237 228 227 226 237 251 261 259 259 252 252 212 161 167 163 158 156 155 150 149 145 150 153 157 163 171 173 179 191 194 189 196 201 201 199 205 214 224 224 221 227 230
233 235 238 237 233 230 235 246 251 255 256 285 179 120 149 166 169 168 164 159 151 148 149 153 154 158 163 168 168 174 190 198 191 188 193 198 195 198 198 207 224 217 225 235
235 229 236 237 236 234 232 240 247 251 252 225 197 181 174 173 178 170 163 157 154 157 158 160 161 159 162 161 156 162 176 188 194 198 195 200 201 193 200 201 206 215 223 238
236 228 238 236 227 234 229 236 242 244 238 219 208 193 161 164 174 168 164 160 158 160 158 159 157 154 159 154 152 151 155 164 177 203 200 195 194 196 203 207 203 215 227 234
232 232 232 213 210 218 222 231 232 230 217 217 194 179 155 113 143 152 155 152 147 152 155 152 150 145 149 153 152 150 149 151 163 186 184 194 192 195 199 194 199 212 214 217
232 240 238 208 179 208 224 219 151 163 181 190 203 224 169 103 134 136 127 124 123 129 146 146 145 144 148 153 149 153 175 180 167 176 184 185 180 182 180 197 201 209 202 198
233 240 234 125 150 194 219 204 126 153 159 179 234 350 100 100 108 119 117 118 125 133 136 142 143 143 147 145 142 144 163 161 149 161 186 168 141 156 169 185 180 186 165 164
229 236 220 110 166 207 23 60 136 138 129 99 76 95 118 124 122 121 118 121 127 126 123 126 130 141 141 131 118 121 137 137 146 158 162 128 134 146 149 162 169 170 171 184
242 230 89 98 85 62 50 106 119 131 119 104 110 115 122 126 124 122 123 120 119 117 116 115 117 122 129 123 130 141 137 125 124 136 144 143 150 153 159 165 179 171 187 227
222 185 129 101 92 71 64 79 80 87 116 131 131 131 135 128 121 121 121 119 116 121 121 113 113 112 104 99 104 121 115 113 122 134 143 135 150 147 129 120 114 74 334 303
225 194 156 137 67 44 45 55 65 74 91 116 131 137 138 132 125 119 113 112 113 111 107 101 101 97 93 96 97 98 100 96 106 106 102 109 94 38 73 64 62 61 15 347
242 209 221 190 48 27 28 46 69 86 85 96 124 136 138 133 129 127 124 118 111 102 93 88 84 81 78 97 104 93 96 90 79 78 99 125 110 78 62 74 90 84 42 358
260 235 186 133 29 11 3 25 55 100 119 111 121 135 139 134 131 128 128 128 121 113 105 100 87 76 78 89 105 98 81 65 66 68 132 173 123 112 82 92 121 129 121 59
179 161 161 172 8 9 42 49 55 77 96 104 118 131 133 133 131 131 132 131 125 119 112 105 92 72 63 86 95 75 43 80 339 279 248 229 223 235 235 258 271 281 157 153
228 221 194 186 166 124 99 98 96 98 99 109 125 139 142 139 134 129 126 123 116 113 101 91 82 60 36 44 122 196 265 253 278 289 253 238 228 220 240 256 280 294 314 117
220 187 172 168 159 149 127 116 106 108 111 119 131 142 144 139 137 134 133 129 125 112 87 70 52 25 15 359 286 256 232 107 233 266 262 252 236 232 252 275 283 284 283 291
205 193 187 184 181 185 171 114 90 112 124 130 139 146 145 144 143 141 143 132 115 104 90 68 33 12 2 350 261 285 327 124 179 254 298 309 293 282 284 278 276 275 269 251
220 207 195 184 189 184 177 134 114 133 139 150 151 157 158 158 161 151 145 130 117 103 85 67 40 18 43 52 340 318 318 354 299 309 315 305 300 290 295 306 300 289 283 230
171 170 169 170 174 170 169 157 147 143 150 169 171 167 166 162 156 148 139 139 140 134 91 63 67 1 61 51 353 280 288 229 202 298 287 235 258 276 299 305 304 304 301 300
133 154 145 149 161 168 175 178 173 164 167 177 167 163 164 158 152 149 147 153 149 109 111 70 85 31 57 55 321 315 326 317 325 309 298 277 284 299 301 301 304 310 309 309
133 145 150 152 150 162 184 182 173 175 177 170 161 165 164 164 168 169 170 161 114 90 125 152 205 327 354 352 271 291 302 298 286 280 284 283 282 285 297 307 308 308 311 314
176 172 166 175 188 192 171 162 164 164 168 166 160 156 160 170 175 171 169 178 151 117 214 203 217 49 349 299 264 283 290 288 282 278 279 278 277 281 289 299 300 301 301 299
191 197 197 196 198 183 162 162 161 158 163 166 164 169 176 186 190 183 172 158 157 170 223 158 65 53 294 269 274 278 282 286 294 289 283 270 270 278 286 287 291 298 297 297
175 188 197 190 176 166 163 160 154 158 168 172 166 170 187 187 181 181 160 156 170 195 207 127 140 238 261 253 277 280 279 288 298 298 296 284 281 281 285 285 287 297 303 303
192 192 185 187 182 169 156 155 161 174 182 173 168 168 184 179 168 157 153 158 161 195 193 161 182 227 246 269 275 286 290 311 309 304 302 303 293 287 289 294 300 295 294 294
189 192 190 204 184 173 177 186 186 177 176 174 166 162 163 153 153 161 178 185 185 199 221 214 207 219 240 259 273 291 297 288 278 280 298 296 295 300 303 306 299 297 297 299
186 179 182 182 182 185 187 191 190 182 180 180 169 162 165 173 180 186 206 216 206 214 228 230 229 235 251 261 269 279 284 284 284 286 289 289 293 296 302 299 301 303 303 306
Height
1469 1467 1467 1471 1473 1473 1474 1473 1476 1474 1473 1473 1475 1477 1481 1484 1487 1489 1491 1493 1495 1497 1498 1499 1501 1502 1503 1504 1505 1505 1506 1507 1507 1507 1508 1508 1509 1509 1509 1509 1509 1509 1509 1509
1472 1468 1468 1471 1470 1470 1472 1471 1471 1472 1473 1472 1476 1479 1482 1484 1486 1488 1491 1493 1494 1496 1497 1498 1499 1500 1501 1502 1502 1503 1504 1504 1504 1505 1505 1506 1506 1506 1506 1506 1507 1507 1507 1507
1473 1468 1470 1474 1467 1467 1470 1469 1470 1473 1474 1474 1477 1479 1482 1485 1487 1488 1490 1492 1493 1495 1496 1497 1498 1498 1499 1500 1500 1501 1501 1502 1502 1502 1502 1503 1503 1503 1503 1503 1504 1504 1505 1505
1472 1475 1486 1468 1462 1463 1467 1469 1467 1469 1472 1474 1476 1480 1483 1485 1487 1488 1489 1491 1492 1494 1495 1496 1497 1497 1498 1498 1499 1499 1499 1499 1499 1499 1499 1500 1500 1500 1500 1500 1501 1502 1502 1502
1472 1474 1471 1466 1464 1465 1467 1470 1468 1470 1472 1475 1477 1479 1481 1484 1486 1487 1489 1490 1491 1492 1494 1494 1495 1496 1496 1497 1497 1497 1497 1497 1497 1497 1497 1497 1497 1497 1498 1498 1498 1499 1500 1499
1471 1475 1475 1466 1462 1465 1467 1472 1471 1472 1474 1476 1476 1476 1480 1484 1486 1487 1488 1489 1490 1491 1492 1493 1493 1494 1494 1495 1496 1496 1496 1495 1495 1495 1495 1495 1495 1495 1495 1496 1496 1497 1497 1497
1470 1470 1463 1462 1464 1466 1474 1474 1474 1474 1476 1477 1478 1479 1482 1484 1485 1486 1487 1488 1489 1490 1490 1491 1492 1492 1493 1494 1494 1494 1494 1494 1493 1493 1493 1493 1493 1493 1493 1494 1494 1494 1495 1494
1467 1470 1470 1466 1465 1468 1471 1474 1474 1476 1477 1478 1480 1481 1482 1483 1484 1485 1486 1487 1488 1488 1489 1490 1491 1491 1491 1492 1493 1493 1493 1492 1492 1492 1492 1492 1491 1491 1491 1491 1492 1492 1493 1492
1464 1466 1468 1468 1470 1473 1474 1475 1476 1477 1478 1479 1480 1481 1482 1483 1483 1484 1485 1486 1487 1488 1488 1489 1490 1490 1491 1491 1491 1491 1491 1491 1491 1490 1491 1491 1491 1490 1490 1490 1490 1490 1491 1491
1468 1467 1469 1471 1472 1474 1475 1476 1477 1477 1478 1479 1480 1481 1482 1483 1484 1484 1485 1486 1487 1488 1489 1489 1489 1490 1490 1490 1490 1489 1489 1489 1489 1489 1490 1490 1490 1490 1490 1490 1490 1489 1489 1489
1469 1470 1471 1472 1474 1475 1476 1476 1477 1478 1478 1479 1479 1481 1482 1483 1484 1484 1485 1486 1487 1488 1489 1489 1489 1489 1489 1489 1488 1488 1488 1489 1488 1489 1489 1489 1489 1489 1489 1489 1488 1488 1488 1488
1466 1470 1471 1473 1475 1476 1476 1477 1477 1477 1478 1479 1479 1481 1482 1483 1484 1484 1485 1486 1487 1487 1488 1488 1489 1488 1488 1488 1488 1488 1488 1488 1488 1488 1488 1488 1488 1488 1488 1487 1487 1486 1486 1486
1471 1472 1473 1474 1475 1476 1476 1477 1477 1477 1478 1478 1479 1480 1481 1482 1484 1484 1485 1486 1486 1487 1487 1488 1488 1488 1488 1487 1487 1487 1488 1488 1488 1487 1488 1488 1487 1486 1486 1486 1485 1485 1484 1484
1471 1472 1473 1474 1475 1476 1476 1476 1477 1477 1477 1478 1478 1480 1481 1482 1483 1484 1485 1486 1486 1486 1487 1487 1487 1487 1487 1487 1486 1486 1487 1487 1486 1486 1487 1486 1486 1485 1485 1485 1484 1483 1483 1483
1471 1471 1472 1474 1475 1476 1476 1476 1476 1476 1477 1477 1478 1479 1481 1482 1483 1483 1484 1485 1486 1486 1486 1487 1486 1486 1486 1486 1486 1485 1486 1485 1485 1485 1485 1485 1485 1484 1484 1483 1483 1483 1482 1481
1470 1470 1472 1473 1474 1475 1475 1476 1476 1476 1477 1477 1478 1479 1480 1481 1482 1483 1484 1484 1485 1485 1485 1485 1485 1485 1485 1484 1484 1485 1484 1484 1484 1484 1484 1484 1483 1483 1482 1482 1481 1481 1480 1480
1469 1469 1471 1472 1473 1474 1475 1475 1476 1476 1476 1477 1478 1479 1480 1481 1482 1483 1483 1484 1484 1484 1484 1484 1484 1484 1484 1483 1483 1484 1484 1483 1482 1482 1482 1482 1482 1481 1481 1480 1480 1479 1479 1477
1468 1469 1470 1471 1472 1473 1474 1474 1475 1475 1476 1477 1477 1478 1479 1480 1481 1482 1482 1483 1483 1483 1483 1484 1484 1483 1483 1483 1482 1483 1482 1482 1482 1482 1481 1481 1480 1480 1479 1478 1478 1478 1477 1476
1467 1468 1469 1470 1471 1471 1472 1473 1474 1474 1475 1476 1477 1477 1478 1479 1480 1481 1481 1481 1482 1482 1482 1483 1483 1483 1482 1482 1482 1481 1481 1481 1481 1480 1480 1479 1479 1479 1478 1477 1477 1476 1476 1475
1467 1468 1468 1469 1470 1470 1471 1472 1472 1473 1474 1475 1476 1476 1478 1479 1479 1480 1480 1480 1481 1481 1481 1481 1481 1482 1481 1481 1481 1481 1481 1480 1479 1479 1479 1478 1477 1477 1476 1476 1475 1475 1474 1473
1466 1466 1467 1467 1468 1469 1470 1470 1471 1472 1473 1474 1474 1475 1476 1477 1478 1478 1479 1479 1480 1480 1480 1480 1480 1480 1480 1479 1479 1480 1479 1479 1478 1477 1477 1476 1476 1476 1475 1475 1474 1473 1472 1471
1465 1466 1466 1467 1467 1468 1468 1469 1470 1471 1471 1472 1473 1474 1474 1475 1476 1476 1477 1478 1478 1478 1478 1479 1479 1478 1478 1478 1478 1478 1478 1477 1477 1476 1475 1475 1474 1474 1473 1473 1472 1471 1470 1469
1464 1465 1465 1466 1466 1467 1467 1468 1469 1470 1470 1471 1471 1472 1473 1474 1475 1475 1475 1476 1476 1476 1477 1477 1477 1477 1476 1477 1477 1477 1476 1476 1475 1475 1474 1473 1472 1472 1471 1470 1469 1468 1467 1466
1463 1463 1464 1465 1465 1466 1467 1468 1468 1469 1470 1470 1470 1471 1472 1472 1473 1473 1474 1473 1473 1474 1475 1475 1475 1475 1475 1476 1476 1475 1475 1474 1474 1473 1472 1471 1470 1469 1469 1468 1467 1466 1465 1464
1461 1462 1462 1463 1464 1465 1466 1467 1467 1468 1469 1469 1470 1470 1471 1471 1472 1472 1472 1472 1472 1472 1473 1473 1473 1473 1474 1474 1474 1473 1473 1472 1472 1471 1470 1469 1468 1467 1466 1465 1464 1463 1462 1461
1459 1460 1461 1462 1463 1464 1465 1466 1466 1467 1467 1468 1469 1469 1470 1470 1470 1470 1471 1471 1471 1471 1472 1472 1472 1472 1472 1472 1472 1471 1471 1470 1469 1468 1468 1467 1466 1465 1464 1463 1462 1461 1460 1459
1458 1458 1459 1461 1462 1463 1464 1464 1465 1465 1466 1467 1468 1468 1469 1469 1469 1469 1470 1470 1470 1470 1470 1471 1470 1470 1470 1470 1470 1469 1469 1468 1467 1466 1465 1464 1463 1462 1461 1460 1459 1458 1457 1456